Saginaw Browne, MI

6:12 AM EST on December 12, 2017 (GMT -0500)
Saginaw County-Browne

Weather History for KHYX - July, 2013

Change the Weather History Date:

Sunday, July 7, 2013

  Actual Average (KMBS) Record (KMBS)
Temperature  
Mean Temperature 74 °F -  
Max Temperature 80 °F 79 °F 91 °F (2010)
Min Temperature 69 °F 56 °F 48 °F (1997)
Cooling Degree Days 10    
Growing Degree Days 24 (Base 50)    
Moisture  
Dew Point 71 °F    
Average Humidity 88    
Maximum Humidity 100    
Minimum Humidity 70    
Precipitation  
Precipitation 0.00 in - - ()
Sea Level Pressure  
Sea Level Pressure 29.99 in    
Wind  
Wind Speed 6 mph (SW)    
Max Wind Speed 10 mph    
Max Gust Speed -    
Visibility 8 miles    
Events Rain    
Averages and records for this station are not official NWS values.
T = Trace of Precipitation, MM = Missing Value Source: NWS Daily Summary

Daily Weather History Graph

Daily Weather History Graph

Search for Another Location

Airport or City:

Trip Planner

Search our weather history database for the weather conditions in past years. The results will help you decide how hot, cold, wet, or windy it might be!

Date:

Astronomy

Jul. 07, 2013 Rise Set
Actual Time 6:02 AM EDT 9:18 PM EDT
Civil Twilight 5:27 AM EDT 9:53 PM EDT
Nautical Twilight 4:41 AM EDT 10:38 PM EDT
Astronomical Twilight 3:45 AM EDT 11:34 PM EDT
Moon 5:39 AM EDT (7/7) 8:38 PM EDT (7/7)
Length of Visible Light 16h 25m
Length of Day
15h 15m
Waning Crescent, 0% of the Moon is Illuminated
Jul 7
Waning Crescent
Jul 8
New
Jul 15
First Quarter
Jul 22
Full
Jul 29
Last Quarter

Hourly Weather History & Observations

Time (EDT) Temp. Heat Index Dew Point Humidity Pressure Visibility Wind Dir Wind Speed Gust Speed Precip Events Conditions
12:19 AM 75.2 °F - 69.8 °F 83% 30.01 in 10.0 mi SSW 4.6 mph - N/A   Mostly Cloudy
12:39 AM 75.2 °F - 69.8 °F 83% 30.01 in 10.0 mi SSW 4.6 mph - N/A   Overcast
1:01 AM 75.2 °F - 69.8 °F 83% 30.01 in 10.0 mi SSW 6.9 mph - N/A   Overcast
1:17 AM 75.2 °F - 69.8 °F 83% 30.01 in 10.0 mi SSW 5.8 mph - N/A   Overcast
1:37 AM 75.2 °F - 69.8 °F 83% 30.01 in 10.0 mi SSW 5.8 mph - N/A   Overcast
1:57 AM 75.2 °F - 69.8 °F 83% 30.00 in 10.0 mi SSW 6.9 mph - N/A   Overcast
2:17 AM 73.4 °F - 71.6 °F 94% 29.99 in 10.0 mi SSW 5.8 mph - N/A   Overcast
2:38 AM 73.4 °F - 71.6 °F 94% 29.99 in 10.0 mi South 3.5 mph - N/A   Mostly Cloudy
2:57 AM 73.4 °F - 71.6 °F 94% 29.98 in 10.0 mi South 3.5 mph - N/A   Mostly Cloudy
3:19 AM 73.4 °F - 71.6 °F 94% 29.98 in 10.0 mi SSW 4.6 mph - N/A   Overcast
3:38 AM 73.4 °F - 71.6 °F 94% 29.98 in 10.0 mi SW 5.8 mph - N/A   Overcast
3:58 AM 73.4 °F - 71.6 °F 94% 29.98 in 10.0 mi SSW 6.9 mph - N/A   Mostly Cloudy
4:18 AM 73.4 °F - 71.6 °F 94% 29.98 in 10.0 mi SW 4.6 mph - N/A   Scattered Clouds
4:40 AM 73.4 °F - 71.6 °F 94% 29.98 in 10.0 mi SW 6.9 mph - N/A   Mostly Cloudy
4:57 AM 73.4 °F - 71.6 °F 94% 29.98 in 10.0 mi WSW 5.8 mph - N/A   Overcast
5:18 AM 71.6 °F - 71.6 °F 100% 29.98 in 10.0 mi SW 4.6 mph - N/A   Overcast
5:37 AM 71.6 °F - 71.6 °F 100% 29.98 in 10.0 mi WSW 4.6 mph - N/A   Overcast
6:00 AM 71.6 °F - 71.6 °F 100% 29.99 in 10.0 mi SW 3.5 mph - N/A   Overcast
6:20 AM 71.6 °F - 71.6 °F 100% 29.99 in 10.0 mi SW 3.5 mph - N/A   Overcast
6:37 AM 71.6 °F - 71.6 °F 100% 30.00 in 10.0 mi SW 4.6 mph - N/A   Overcast
6:57 AM 71.6 °F - 69.8 °F 94% 29.99 in 10.0 mi WSW 4.6 mph - N/A   Overcast
7:17 AM 73.4 °F - 69.8 °F 88% 30.00 in 10.0 mi WSW 6.9 mph - N/A   Overcast
7:37 AM 73.4 °F - 69.8 °F 88% 30.01 in 7.0 mi West 6.9 mph - N/A   Overcast
7:58 AM 71.6 °F - 69.8 °F 94% 30.01 in 5.0 mi West 8.1 mph - N/A   Light Drizzle
8:17 AM 71.6 °F - 71.6 °F 100% 30.01 in 7.0 mi West 4.6 mph - N/A   Overcast
8:37 AM 71.6 °F - 71.6 °F 100% 30.02 in 7.0 mi WSW 6.9 mph - N/A   Overcast
8:59 AM 73.4 °F - 71.6 °F 94% 30.01 in 7.0 mi West 6.9 mph - N/A   Overcast
9:19 AM 71.6 °F - 69.8 °F 94% 30.02 in 5.0 mi WSW 9.2 mph - N/A Rain Light Rain
9:27 AM 71.6 °F - 69.8 °F 94% 30.02 in 4.0 mi WSW 6.9 mph - N/A Rain Rain
9:32 AM 71.6 °F - 69.8 °F 94% 30.02 in 4.0 mi WSW 6.9 mph - N/A Rain Rain
9:52 AM 69.8 °F - 69.8 °F 100% 30.02 in 3.0 mi SW 4.6 mph - N/A Rain Rain
10:12 AM 69.8 °F - 69.8 °F 100% 30.02 in 4.0 mi SSW 5.8 mph - N/A Rain Light Rain
10:32 AM 71.6 °F - 71.6 °F 100% 30.01 in 3.0 mi SW 5.8 mph - N/A Rain Light Rain
10:52 AM 71.6 °F - 71.6 °F 100% 30.01 in 3.0 mi SW 4.6 mph - N/A   Overcast
11:12 AM 71.6 °F - 71.6 °F 100% 30.02 in 5.0 mi SW 6.9 mph - N/A   Overcast
11:32 AM 71.6 °F - 71.6 °F 100% 30.02 in 5.0 mi SW 5.8 mph - N/A Rain Light Rain
11:53 AM 71.6 °F - 71.6 °F 100% 30.02 in 5.0 mi SW 5.8 mph - N/A   Overcast
12:13 PM 71.6 °F - 71.6 °F 100% 30.02 in 4.0 mi South 5.8 mph - N/A   Overcast
12:33 PM 73.4 °F - 73.4 °F 100% 30.01 in 4.0 mi SW 5.8 mph - N/A   Overcast
12:53 PM 77.0 °F - 73.4 °F 89% 30.01 in 7.0 mi SW 6.9 mph - N/A   Mostly Cloudy
1:13 PM 77.0 °F - 71.6 °F 83% 30.00 in 7.0 mi WSW 8.1 mph - N/A   Mostly Cloudy
1:33 PM 77.0 °F - 71.6 °F 83% 30.00 in 10.0 mi SW 10.4 mph - N/A   Mostly Cloudy
1:53 PM 77.0 °F - 71.6 °F 83% 30.00 in 7.0 mi SW 9.2 mph - N/A   Scattered Clouds
2:13 PM 77.0 °F - 71.6 °F 83% 29.99 in 5.0 mi SW 8.1 mph - N/A Rain Light Rain
2:33 PM 77.0 °F - 69.8 °F 78% 29.99 in 10.0 mi SW 10.4 mph - N/A   Scattered Clouds
2:54 PM 77.0 °F - 69.8 °F 78% 29.99 in 7.0 mi SW 8.1 mph - N/A   Clear
3:14 PM 77.0 °F - 71.6 °F 83% 29.99 in 7.0 mi SSW 9.2 mph - N/A   Clear
3:34 PM 77.0 °F - 71.6 °F 83% 29.99 in 7.0 mi SW 8.1 mph - N/A   Clear
3:54 PM 77.0 °F - 71.6 °F 83% 29.98 in 7.0 mi SW 9.2 mph - N/A   Clear
4:14 PM 78.8 °F - 71.6 °F 78% 29.98 in 7.0 mi SSW 9.2 mph - N/A   Scattered Clouds
4:34 PM 78.8 °F - 71.6 °F 78% 29.96 in 7.0 mi SSW 10.4 mph - N/A   Clear
4:54 PM 80.6 °F 84.6 °F 71.6 °F 74% 29.96 in 7.0 mi SW 6.9 mph - N/A   Clear
5:15 PM 78.8 °F - 71.6 °F 78% 29.96 in 10.0 mi SW 9.2 mph - N/A   Clear
5:35 PM 80.6 °F 84.6 °F 71.6 °F 74% 29.95 in 10.0 mi SSW 8.1 mph - N/A   Clear
5:50 PM 80.6 °F 83.9 °F 69.8 °F 70% 29.95 in 10.0 mi SW 8.1 mph - N/A   Clear
6:10 PM 80.6 °F 83.9 °F 69.8 °F 70% 29.95 in 10.0 mi SW 6.9 mph - N/A   Clear
6:30 PM 80.6 °F 84.6 °F 71.6 °F 74% 29.96 in 10.0 mi SW 3.5 mph - N/A   Mostly Cloudy
6:50 PM 80.6 °F 83.9 °F 69.8 °F 70% 29.96 in 10.0 mi SW 4.6 mph - N/A   Mostly Cloudy
7:10 PM 78.8 °F - 71.6 °F 78% 29.96 in 10.0 mi SW 3.5 mph - N/A   Mostly Cloudy
7:30 PM 78.8 °F - 71.6 °F 78% 29.96 in 10.0 mi SW 5.8 mph - N/A   Scattered Clouds
7:50 PM 78.8 °F - 69.8 °F 74% 29.96 in 10.0 mi SW 6.9 mph - N/A   Clear
8:10 PM 78.8 °F - 69.8 °F 74% 29.96 in 10.0 mi SW 5.8 mph - N/A   Scattered Clouds
8:30 PM 77.0 °F - 69.8 °F 78% 29.96 in 10.0 mi SW 4.6 mph - N/A   Clear
8:51 PM 77.0 °F - 69.8 °F 78% 29.97 in 10.0 mi SW 4.6 mph - N/A   Clear
9:11 PM 77.0 °F - 71.6 °F 83% 29.97 in 10.0 mi SW 5.8 mph - N/A   Clear
9:31 PM 77.0 °F - 71.6 °F 83% 29.98 in 10.0 mi SW 4.6 mph - N/A   Scattered Clouds
9:51 PM 75.2 °F - 71.6 °F 89% 29.99 in 10.0 mi SW 4.6 mph - N/A   Scattered Clouds
10:11 PM 75.2 °F - 71.6 °F 89% 29.99 in 10.0 mi SW 5.8 mph - N/A   Scattered Clouds
10:31 PM 75.2 °F - 71.6 °F 89% 29.99 in 10.0 mi SW 5.8 mph - N/A   Clear
10:51 PM 73.4 °F - 69.8 °F 88% 29.99 in 10.0 mi WSW 5.8 mph - N/A   Scattered Clouds
11:11 PM 73.4 °F - 69.8 °F 88% 29.99 in 10.0 mi SW 4.6 mph - N/A   Mostly Cloudy
11:31 PM 73.4 °F - 69.8 °F 88% 29.99 in 10.0 mi SW 4.6 mph - N/A   Scattered Clouds
11:51 PM 73.4 °F - 69.8 °F 88% 29.99 in 10.0 mi SW 4.6 mph - N/A   Clear